Weather History for KPHX - September, 1950

Change the Weather History Date:

Friday, September 15, 1950

  Actual Average Record
Temperature  
Mean Temperature 80 °F 89 °F  
Max Temperature 96 °F 100 °F 110 °F (2000)
Min Temperature 64 °F 77 °F 53 °F (1915)
Degree Days  
Heating Degree Days 0 0  
Month to date heating degree days 0  
Since 1 July heating degree days 0  
Cooling Degree Days 15 24  
Month to date cooling degree days 387  
Year to date cooling degree days 3856  
Growing Degree Days 30 (Base 50)    
Moisture  
Dew Point 43 °F    
Average Humidity 29    
Maximum Humidity 47    
Minimum Humidity 15    
Precipitation  
Precipitation 0.00 in 0.02 in 0.07 in (1944)
Month to date precipitation 0.35  
Year to date precipitation 5.63  
Snow  
Snow 0.00 in - - ()
Month to date snowfall  
Year to date snowfall  
Since 1 July snowfall  
Snow Depth -    
Sea Level Pressure  
Sea Level Pressure 29.76 in    
Wind  
Wind Speed 5 mph (East)    
Max Wind Speed 13 mph    
Max Gust Speed -    
Visibility 15 miles    
Events      
T = Trace of Precipitation, MM = Missing Value Source: NWS Daily Summary

Daily Weather History Graph

Daily Weather History Graph

Search for Another Location

Airport or City:

Trip Planner

Search our weather history database for the weather conditions in past years. The results will help you decide how hot, cold, wet, or windy it might be!

Date:

Astronomy

Sep. 15, 1950 Rise Set
Actual Time 6:11 AM MST 6:34 PM MST
Civil Twilight 5:46 AM MST 6:59 PM MST
Nautical Twilight 5:16 AM MST 7:28 PM MST
Astronomical Twilight 4:47 AM MST 7:58 PM MST
Moon 10:08 AM MST (9/15) 8:43 PM MST (9/15)
Length of Visible Light 13h 13m
Length of Day
12h 23m
Waxing Crescent, 17% of the Moon is Illuminated
Sep 15
Waxing Crescent
Sep 18
First Quarter
Sep 25
Full
Oct 4
Last Quarter
Oct 11
New

Hourly Weather History & Observations

Time (MST) Temp. Dew Point Humidity Pressure Visibility Wind Dir Wind Speed Gust Speed Precip Events Conditions
12:00 AM 71.1 °F 43.0 °F 36% 29.78 in 15.0 mi ESE 3.5 mph - N/A   Clear
1:00 AM 68.0 °F 41.0 °F 37% 29.79 in 15.0 mi NE 6.9 mph - N/A   Clear
2:00 AM 64.9 °F 42.1 °F 43% 29.79 in 15.0 mi NNE 2.3 mph - N/A   Clear
3:00 AM 66.0 °F 41.0 °F 40% 29.79 in 15.0 mi East 6.9 mph - N/A   Clear
4:00 AM 66.0 °F 37.0 °F 34% 29.79 in 15.0 mi East 4.6 mph - N/A   Clear
5:00 AM 64.9 °F 36.0 °F 34% 29.80 in 15.0 mi ESE 3.5 mph - N/A   Clear
6:00 AM 64.9 °F 37.0 °F 36% 29.81 in 30.0 mi ENE 5.8 mph - N/A   Clear
7:00 AM 70.0 °F 39.0 °F 32% 29.83 in 30.0 mi East 8.1 mph - N/A   Clear
8:00 AM 73.9 °F 37.9 °F 27% 29.83 in 30.0 mi East 8.1 mph - N/A   Clear
9:00 AM 79.0 °F 41.0 °F 26% 29.83 in 30.0 mi ESE 10.4 mph - N/A   Clear
10:00 AM 84.0 °F 44.1 °F 25% 29.83 in 30.0 mi ESE 3.5 mph - N/A   Clear
11:00 AM 88.0 °F 44.1 °F 22% 29.80 in 30.0 mi SE 4.6 mph - N/A   Clear
12:00 PM 90.0 °F 44.1 °F 20% 29.78 in 30.0 mi SE 6.9 mph - N/A   Clear
1:00 PM 93.0 °F 44.1 °F 18% 29.75 in 30.0 mi South 3.5 mph - N/A   Clear
2:00 PM 93.9 °F 43.0 °F 17% 29.72 in 30.0 mi SE 12.7 mph - N/A   Unknown
3:00 PM 96.1 °F 41.0 °F 15% 29.69 in 30.0 mi SE 5.8 mph - N/A   Clear
4:00 PM 95.0 °F 45.0 °F 18% 29.69 in 30.0 mi NE 10.4 mph - N/A   Clear
5:00 PM 91.0 °F 45.0 °F 20% 29.68 in 30.0 mi NE 3.5 mph - N/A   Unknown
6:00 PM 88.0 °F 44.1 °F 22% 29.68 in 30.0 mi North 3.5 mph - N/A   Clear
7:00 PM 84.0 °F 48.0 °F 28% 29.66 in 15.0 mi Calm Calm - N/A   Clear
8:00 PM 80.1 °F 50.0 °F 35% 29.69 in 15.0 mi Calm Calm - N/A   Unknown
9:00 PM 78.1 °F 50.0 °F 37% 29.70 in 15.0 mi Calm Calm - N/A   Clear
10:00 PM 75.0 °F 46.9 °F 37% 29.71 in 15.0 mi Calm Calm - N/A   Clear
11:00 PM 70.0 °F 48.9 °F 47% 29.71 in 15.0 mi Calm Calm - N/A   Unknown